Location: Montr�al
(45.5000°N, 73.5830°W)
Time: 01:25:29
(UTC-05:00)

Cosmos 1151 Rocket - Visible Passes

Search period start: 22 December 2014 00:00
Search period end: 01 January 2015 00:00
Orbit: 593 x 619 km, 82.5° (Epoch: 21 December)

Date Brightness Start Highest point End Pass type
(mag) Time Alt. Az. Time Alt. Az. Time Alt. Az.
29 Dec 4.8 17:43:23 10° NNE 17:44:25 15° NNE 17:44:25 15° NNE visible
29 Dec 5.5 19:20:34 10° NNW 19:21:28 15° NNW 19:21:28 15° NNW visible
30 Dec 6.2 06:17:12 10° ESE 06:18:45 12° E 06:20:17 10° ENE visible
30 Dec 3.5 17:56:11 10° N 18:00:10 36° ENE 18:04:09 10° SE visible
30 Dec 5.4 19:34:17 10° NW 19:37:32 21° W 19:40:47 10° SW visible
31 Dec 5.8 06:28:42 10° SE 06:31:44 19° E 06:34:46 10° NE visible
31 Dec 2.9 18:09:13 10° N 18:13:29 60° E 18:17:45 10° SSE visible
31 Dec 6.1 19:48:31 10° NW 19:50:32 13° W 19:52:33 10° WSW visible
